User: anonymous   Login
Location: Deer Path Park
(40.5570°N, 74.8450°W)
Time: 12:07:57
(UTC-04:00)
Language:

Iridium 49 - Orbit

View from above orbital plane
View from above orbital plane
View from above satellite
View from above satellite

Ground track
Ground track

The orbit data is extracted from the following two-line orbital elements,

1 25108U 97082E   14296.50475883  .00000273  00000-0  90539-4 0  9648
2 25108 086.3927 299.9124 0002159 105.5007 004.8701 14.34219377881675
Epoch (UTC): 23 October 2014 12:06:51
Eccentricity: 0.0002159
inclination: 86.3927°
perigee height: 776 km
apogee height: 779 km
right ascension of ascending node: 299.9124°
argument of perigee: 105.5007°
revolutions per day: 14.34219377
mean anomaly at epoch: 4.8701°
orbit number at epoch: 88167

The dashed part of the orbit path shows where the satellite is in the earth's shadow,  

DLR